owner,sensor,date,latitude,longitude,sea_surface_height_above_sea_level,qcFlag 
COMPS,ioos:station:USF.COMPS:SHP:1,2015-12-01T00:00:00Z,30.0600,-84.2910,0.47,1111122 
COMPS,ioos:station:USF.COMPS:SHP:1,2015-12-01T00:06:00Z,30.0600,-84.2910,0.453,1111122 
COMPS,ioos:station:USF.COMPS:SHP:1,2015-12-01T00:12:00Z,30.0600,-84.2910,0.444,1111122 
COMPS,ioos:station:USF.COMPS:SHP:1,2015-12-01T00:18:00Z,30.0600,-84.2910,0.439,1111122 
COMPS,ioos:station:USF.COMPS:SHP:1,2015-12-01T00:24:00Z,30.0600,-84.2910,0.426,1111122 
COMPS,ioos:station:USF.COMPS:SHP:1,2015-12-01T00:30:00Z,30.0600,-84.2910,0.412,1111122 
COMPS,ioos:station:USF.COMPS:SHP:1,2015-12-01T00:36:00Z,30.0600,-84.2910,0.401,1111122 
COMPS,ioos:station:USF.COMPS:SHP:1,2015-12-01T00:42:00Z,30.0600,-84.2910,0.39,1111122 
COMPS,ioos:station:USF.COMPS:SHP:1,2015-12-01T00:48:00Z,30.0600,-84.2910,0.382,1111122 
COMPS,ioos:station:USF.COMPS:SHP:1,2015-12-01T00:54:00Z,30.0600,-84.2910,0.372,1111122 
COMPS,ioos:station:USF.COMPS:SHP:1,2015-12-01T01:00:00Z,30.0600,-84.2910,0.346,1111122 
COMPS,ioos:station:USF.COMPS:SHP:1,2015-12-01T01:06:00Z,30.0600,-84.2910,0.33,1111122 
COMPS,ioos:station:USF.COMPS:SHP:1,2015-12-01T01:12:00Z,30.0600,-84.2910,0.328,1111122 
COMPS,ioos:station:USF.COMPS:SHP:1,2015-12-01T01:18:00Z,30.0600,-84.2910,0.314,1111122 
COMPS,ioos:station:USF.COMPS:SHP:1,2015-12-01T01:24:00Z,30.0600,-84.2910,0.287,1111122 
COMPS,ioos:station:USF.COMPS:SHP:1,2015-12-01T01:30:00Z,30.0600,-84.2910,0.273,1111122 
COMPS,ioos:station:USF.COMPS:SHP:1,2015-12-01T01:36:00Z,30.0600,-84.2910,0.259,1111122 
COMPS,ioos:station:USF.COMPS:SHP:1,2015-12-01T01:42:00Z,30.0600,-84.2910,0.244,1111122 
COMPS,ioos:station:USF.COMPS:SHP:1,2015-12-01T01:48:00Z,30.0600,-84.2910,0.231,1111122 
COMPS,ioos:station:USF.COMPS:SHP:1,2015-12-01T01:54:00Z,30.0600,-84.2910,0.222,1111122 
COMPS,ioos:station:USF.COMPS:SHP:1,2015-12-01T02:00:00Z,30.0600,-84.2910,0.2,1111122 
COMPS,ioos:station:USF.COMPS:SHP:1,2015-12-01T02:06:00Z,30.0600,-84.2910,0.181,1111122 
COMPS,ioos:station:USF.COMPS:SHP:1,2015-12-01T02:12:00Z,30.0600,-84.2910,0.171,1111122 
COMPS,ioos:station:USF.COMPS:SHP:1,2015-12-01T02:18:00Z,30.0600,-84.2910,0.159,1111122 
COMPS,ioos:station:USF.COMPS:SHP:1,2015-12-01T02:24:00Z,30.0600,-84.2910,0.15,1111122 
COMPS,ioos:station:USF.COMPS:SHP:1,2015-12-01T02:30:00Z,30.0600,-84.2910,0.145,1111122 
COMPS,ioos:station:USF.COMPS:SHP:1,2015-12-01T02:36:00Z,30.0600,-84.2910,0.143,1111122 
COMPS,ioos:station:USF.COMPS:SHP:1,2015-12-01T02:42:00Z,30.0600,-84.2910,0.13,1111122 
COMPS,ioos:station:USF.COMPS:SHP:1,2015-12-01T02:48:00Z,30.0600,-84.2910,0.111,1111122 
COMPS,ioos:station:USF.COMPS:SHP:1,2015-12-01T02:54:00Z,30.0600,-84.2910,0.106,1111122 
COMPS,ioos:station:USF.COMPS:SHP:1,2015-12-01T03:00:00Z,30.0600,-84.2910,0.102,1111122 
COMPS,ioos:station:USF.COMPS:SHP:1,2015-12-01T03:06:00Z,30.0600,-84.2910,0.092,1111122 
COMPS,ioos:station:USF.COMPS:SHP:1,2015-12-01T03:12:00Z,30.0600,-84.2910,0.086,1111122 
COMPS,ioos:station:USF.COMPS:SHP:1,2015-12-01T03:18:00Z,30.0600,-84.2910,0.085,1111122 
COMPS,ioos:station:USF.COMPS:SHP:1,2015-12-01T03:24:00Z,30.0600,-84.2910,0.082,1111122 
COMPS,ioos:station:USF.COMPS:SHP:1,2015-12-01T03:30:00Z,30.0600,-84.2910,0.077,1111122 
COMPS,ioos:station:USF.COMPS:SHP:1,2015-12-01T03:36:00Z,30.0600,-84.2910,0.076,1111122 
COMPS,ioos:station:USF.COMPS:SHP:1,2015-12-01T03:42:00Z,30.0600,-84.2910,0.074,1111122 
COMPS,ioos:station:USF.COMPS:SHP:1,2015-12-01T03:48:00Z,30.0600,-84.2910,0.074,1111122 
COMPS,ioos:station:USF.COMPS:SHP:1,2015-12-01T03:54:00Z,30.0600,-84.2910,0.071,1111122 
COMPS,ioos:station:USF.COMPS:SHP:1,2015-12-01T04:00:00Z,30.0600,-84.2910,0.066,1111122 
COMPS,ioos:station:USF.COMPS:SHP:1,2015-12-01T04:06:00Z,30.0600,-84.2910,0.067,1111122 
COMPS,ioos:station:USF.COMPS:SHP:1,2015-12-01T04:12:00Z,30.0600,-84.2910,0.075,1111122 
COMPS,ioos:station:USF.COMPS:SHP:1,2015-12-01T04:18:00Z,30.0600,-84.2910,0.086,1111122 
COMPS,ioos:station:USF.COMPS:SHP:1,2015-12-01T04:24:00Z,30.0600,-84.2910,0.092,1111122 
COMPS,ioos:station:USF.COMPS:SHP:1,2015-12-01T04:30:00Z,30.0600,-84.2910,0.09,1111122 
COMPS,ioos:station:USF.COMPS:SHP:1,2015-12-01T04:36:00Z,30.0600,-84.2910,0.089,1111122 
COMPS,ioos:station:USF.COMPS:SHP:1,2015-12-01T04:42:00Z,30.0600,-84.2910,0.096,1111122 
COMPS,ioos:station:USF.COMPS:SHP:1,2015-12-01T04:48:00Z,30.0600,-84.2910,0.108,1111122 
COMPS,ioos:station:USF.COMPS:SHP:1,2015-12-01T04:54:00Z,30.0600,-84.2910,0.116,1111122 
COMPS,ioos:station:USF.COMPS:SHP:1,2015-12-01T05:00:00Z,30.0600,-84.2910,0.12,1111122 
COMPS,ioos:station:USF.COMPS:SHP:1,2015-12-01T05:06:00Z,30.0600,-84.2910,0.125,1111122 
COMPS,ioos:station:USF.COMPS:SHP:1,2015-12-01T05:12:00Z,30.0600,-84.2910,0.133,1111122 
COMPS,ioos:station:USF.COMPS:SHP:1,2015-12-01T05:18:00Z,30.0600,-84.2910,0.145,1111122 
COMPS,ioos:station:USF.COMPS:SHP:1,2015-12-01T05:24:00Z,30.0600,-84.2910,0.153,1111122 
COMPS,ioos:station:USF.COMPS:SHP:1,2015-12-01T05:30:00Z,30.0600,-84.2910,0.156,1111122 
COMPS,ioos:station:USF.COMPS:SHP:1,2015-12-01T05:36:00Z,30.0600,-84.2910,0.165,1111122 
COMPS,ioos:station:USF.COMPS:SHP:1,2015-12-01T05:42:00Z,30.0600,-84.2910,0.177,1111122 
COMPS,ioos:station:USF.COMPS:SHP:1,2015-12-01T05:48:00Z,30.0600,-84.2910,0.187,1111122 
COMPS,ioos:station:USF.COMPS:SHP:1,2015-12-01T05:54:00Z,30.0600,-84.2910,0.198,1111122 
COMPS,ioos:station:USF.COMPS:SHP:1,2015-12-01T06:00:00Z,30.0600,-84.2910,0.21,1111122 
COMPS,ioos:station:USF.COMPS:SHP:1,2015-12-01T06:06:00Z,30.0600,-84.2910,0.223,1111122 
COMPS,ioos:station:USF.COMPS:SHP:1,2015-12-01T06:12:00Z,30.0600,-84.2910,0.232,1111122 
COMPS,ioos:station:USF.COMPS:SHP:1,2015-12-01T06:18:00Z,30.0600,-84.2910,0.241,1111122 
COMPS,ioos:station:USF.COMPS:SHP:1,2015-12-01T06:24:00Z,30.0600,-84.2910,0.258,1111122 
COMPS,ioos:station:USF.COMPS:SHP:1,2015-12-01T06:30:00Z,30.0600,-84.2910,0.27,1111122 
COMPS,ioos:station:USF.COMPS:SHP:1,2015-12-01T06:36:00Z,30.0600,-84.2910,0.275,1111122 
COMPS,ioos:station:USF.COMPS:SHP:1,2015-12-01T06:42:00Z,30.0600,-84.2910,0.289,1111122 
COMPS,ioos:station:USF.COMPS:SHP:1,2015-12-01T06:48:00Z,30.0600,-84.2910,0.309,1111122 
COMPS,ioos:station:USF.COMPS:SHP:1,2015-12-01T06:54:00Z,30.0600,-84.2910,0.325,1111122 
COMPS,ioos:station:USF.COMPS:SHP:1,2015-12-01T07:00:00Z,30.0600,-84.2910,0.338,1111122 
COMPS,ioos:station:USF.COMPS:SHP:1,2015-12-01T07:06:00Z,30.0600,-84.2910,0.347,1111122 
COMPS,ioos:station:USF.COMPS:SHP:1,2015-12-01T07:12:00Z,30.0600,-84.2910,0.361,1111122 
COMPS,ioos:station:USF.COMPS:SHP:1,2015-12-01T07:18:00Z,30.0600,-84.2910,0.378,1111122 
COMPS,ioos:station:USF.COMPS:SHP:1,2015-12-01T07:24:00Z,30.0600,-84.2910,0.393,1111122 
COMPS,ioos:station:USF.COMPS:SHP:1,2015-12-01T07:30:00Z,30.0600,-84.2910,0.405,1111122 
COMPS,ioos:station:USF.COMPS:SHP:1,2015-12-01T07:36:00Z,30.0600,-84.2910,0.414,1111122 
COMPS,ioos:station:USF.COMPS:SHP:1,2015-12-01T07:42:00Z,30.0600,-84.2910,0.43,1111122 
COMPS,ioos:station:USF.COMPS:SHP:1,2015-12-01T07:48:00Z,30.0600,-84.2910,0.45,1111122 
COMPS,ioos:station:USF.COMPS:SHP:1,2015-12-01T07:54:00Z,30.0600,-84.2910,0.463,1111122 
COMPS,ioos:station:USF.COMPS:SHP:1,2015-12-01T08:00:00Z,30.0600,-84.2910,0.473,1111122 
COMPS,ioos:station:USF.COMPS:SHP:1,2015-12-01T08:06:00Z,30.0600,-84.2910,0.482,1111122 
COMPS,ioos:station:USF.COMPS:SHP:1,2015-12-01T08:12:00Z,30.0600,-84.2910,0.491,1111122 
COMPS,ioos:station:USF.COMPS:SHP:1,2015-12-01T08:18:00Z,30.0600,-84.2910,0.498,1111122 
COMPS,ioos:station:USF.COMPS:SHP:1,2015-12-01T08:24:00Z,30.0600,-84.2910,0.507,1111122 
COMPS,ioos:station:USF.COMPS:SHP:1,2015-12-01T08:30:00Z,30.0600,-84.2910,0.521,1111122 
COMPS,ioos:station:USF.COMPS:SHP:1,2015-12-01T08:36:00Z,30.0600,-84.2910,0.532,1111122 
COMPS,ioos:station:USF.COMPS:SHP:1,2015-12-01T08:42:00Z,30.0600,-84.2910,0.538,1111122 
COMPS,ioos:station:USF.COMPS:SHP:1,2015-12-01T08:48:00Z,30.0600,-84.2910,0.544,1111122 
COMPS,ioos:station:USF.COMPS:SHP:1,2015-12-01T08:54:00Z,30.0600,-84.2910,0.549,1111122 
COMPS,ioos:station:USF.COMPS:SHP:1,2015-12-01T09:00:00Z,30.0600,-84.2910,0.556,1111122 
COMPS,ioos:station:USF.COMPS:SHP:1,2015-12-01T09:06:00Z,30.0600,-84.2910,0.564,1111122 
COMPS,ioos:station:USF.COMPS:SHP:1,2015-12-01T09:12:00Z,30.0600,-84.2910,0.566,1111122 
COMPS,ioos:station:USF.COMPS:SHP:1,2015-12-01T09:18:00Z,30.0600,-84.2910,0.568,1111122 
COMPS,ioos:station:USF.COMPS:SHP:1,2015-12-01T09:24:00Z,30.0600,-84.2910,0.573,1111122 
COMPS,ioos:station:USF.COMPS:SHP:1,2015-12-01T09:30:00Z,30.0600,-84.2910,0.58,1111122 
COMPS,ioos:station:USF.COMPS:SHP:1,2015-12-01T09:36:00Z,30.0600,-84.2910,0.583,1111122 
COMPS,ioos:station:USF.COMPS:SHP:1,2015-12-01T09:42:00Z,30.0600,-84.2910,0.585,1111122 
COMPS,ioos:station:USF.COMPS:SHP:1,2015-12-01T09:48:00Z,30.0600,-84.2910,0.59,1111122 
COMPS,ioos:station:USF.COMPS:SHP:1,2015-12-01T09:54:00Z,30.0600,-84.2910,0.592,1111122 
COMPS,ioos:station:USF.COMPS:SHP:1,2015-12-01T10:00:00Z,30.0600,-84.2910,0.587,1111122 
COMPS,ioos:station:USF.COMPS:SHP:1,2015-12-01T10:06:00Z,30.0600,-84.2910,0.589,1111122 
COMPS,ioos:station:USF.COMPS:SHP:1,2015-12-01T10:12:00Z,30.0600,-84.2910,0.594,1111122 
COMPS,ioos:station:USF.COMPS:SHP:1,2015-12-01T10:18:00Z,30.0600,-84.2910,0.594,1111122 
COMPS,ioos:station:USF.COMPS:SHP:1,2015-12-01T10:24:00Z,30.0600,-84.2910,0.592,1111122 
COMPS,ioos:station:USF.COMPS:SHP:1,2015-12-01T10:30:00Z,30.0600,-84.2910,0.584,1111122 
COMPS,ioos:station:USF.COMPS:SHP:1,2015-12-01T10:36:00Z,30.0600,-84.2910,0.572,1111122 
COMPS,ioos:station:USF.COMPS:SHP:1,2015-12-01T10:42:00Z,30.0600,-84.2910,0.574,1111122 
COMPS,ioos:station:USF.COMPS:SHP:1,2015-12-01T10:48:00Z,30.0600,-84.2910,0.577,1111122 
COMPS,ioos:station:USF.COMPS:SHP:1,2015-12-01T10:54:00Z,30.0600,-84.2910,0.575,1111122 
COMPS,ioos:station:USF.COMPS:SHP:1,2015-12-01T11:00:00Z,30.0600,-84.2910,0.567,1111122 
COMPS,ioos:station:USF.COMPS:SHP:1,2015-12-01T11:06:00Z,30.0600,-84.2910,0.562,1111122 
COMPS,ioos:station:USF.COMPS:SHP:1,2015-12-01T11:12:00Z,30.0600,-84.2910,0.544,1111122 
COMPS,ioos:station:USF.COMPS:SHP:1,2015-12-01T11:18:00Z,30.0600,-84.2910,0.53,1111122 
COMPS,ioos:station:USF.COMPS:SHP:1,2015-12-01T11:24:00Z,30.0600,-84.2910,0.526,1111122 
COMPS,ioos:station:USF.COMPS:SHP:1,2015-12-01T11:30:00Z,30.0600,-84.2910,0.517,1111122 
COMPS,ioos:station:USF.COMPS:SHP:1,2015-12-01T11:36:00Z,30.0600,-84.2910,0.495,1111122 
COMPS,ioos:station:USF.COMPS:SHP:1,2015-12-01T11:42:00Z,30.0600,-84.2910,0.48,1111122 
COMPS,ioos:station:USF.COMPS:SHP:1,2015-12-01T11:48:00Z,30.0600,-84.2910,0.464,1111122 
COMPS,ioos:station:USF.COMPS:SHP:1,2015-12-01T11:54:00Z,30.0600,-84.2910,0.439,1111122 
COMPS,ioos:station:USF.COMPS:SHP:1,2015-12-01T12:00:00Z,30.0600,-84.2910,0.433,1111122 
COMPS,ioos:station:USF.COMPS:SHP:1,2015-12-01T12:06:00Z,30.0600,-84.2910,0.43,1111122 
COMPS,ioos:station:USF.COMPS:SHP:1,2015-12-01T12:12:00Z,30.0600,-84.2910,0.413,1111122 
COMPS,ioos:station:USF.COMPS:SHP:1,2015-12-01T12:18:00Z,30.0600,-84.2910,0.394,1111122 
COMPS,ioos:station:USF.COMPS:SHP:1,2015-12-01T12:24:00Z,30.0600,-84.2910,0.369,1111122 
COMPS,ioos:station:USF.COMPS:SHP:1,2015-12-01T12:30:00Z,30.0600,-84.2910,0.352,1111122 
COMPS,ioos:station:USF.COMPS:SHP:1,2015-12-01T12:36:00Z,30.0600,-84.2910,0.336,1111122 
COMPS,ioos:station:USF.COMPS:SHP:1,2015-12-01T12:42:00Z,30.0600,-84.2910,0.311,1111122 
COMPS,ioos:station:USF.COMPS:SHP:1,2015-12-01T12:48:00Z,30.0600,-84.2910,0.286,1111122 
COMPS,ioos:station:USF.COMPS:SHP:1,2015-12-01T12:54:00Z,30.0600,-84.2910,0.274,1111122 
COMPS,ioos:station:USF.COMPS:SHP:1,2015-12-01T13:00:00Z,30.0600,-84.2910,0.258,1111122 
COMPS,ioos:station:USF.COMPS:SHP:1,2015-12-01T13:06:00Z,30.0600,-84.2910,0.235,1111122 
COMPS,ioos:station:USF.COMPS:SHP:1,2015-12-01T13:12:00Z,30.0600,-84.2910,0.208,1111122 
COMPS,ioos:station:USF.COMPS:SHP:1,2015-12-01T13:18:00Z,30.0600,-84.2910,0.186,1111122 
COMPS,ioos:station:USF.COMPS:SHP:1,2015-12-01T13:24:00Z,30.0600,-84.2910,0.166,1111122 
COMPS,ioos:station:USF.COMPS:SHP:1,2015-12-01T13:30:00Z,30.0600,-84.2910,0.143,1111122 
COMPS,ioos:station:USF.COMPS:SHP:1,2015-12-01T13:36:00Z,30.0600,-84.2910,0.124,1111122 
COMPS,ioos:station:USF.COMPS:SHP:1,2015-12-01T13:42:00Z,30.0600,-84.2910,0.105,1111122 
COMPS,ioos:station:USF.COMPS:SHP:1,2015-12-01T13:48:00Z,30.0600,-84.2910,0.084,1111122 
COMPS,ioos:station:USF.COMPS:SHP:1,2015-12-01T13:54:00Z,30.0600,-84.2910,0.063,1111122 
COMPS,ioos:station:USF.COMPS:SHP:1,2015-12-01T14:00:00Z,30.0600,-84.2910,0.046,1111122 
COMPS,ioos:station:USF.COMPS:SHP:1,2015-12-01T14:06:00Z,30.0600,-84.2910,0.027,1111122 
COMPS,ioos:station:USF.COMPS:SHP:1,2015-12-01T14:12:00Z,30.0600,-84.2910,0.005,1111122 
COMPS,ioos:station:USF.COMPS:SHP:1,2015-12-01T14:18:00Z,30.0600,-84.2910,-0.009,1111122 
COMPS,ioos:station:USF.COMPS:SHP:1,2015-12-01T14:24:00Z,30.0600,-84.2910,-0.014,1111122 
COMPS,ioos:station:USF.COMPS:SHP:1,2015-12-01T14:30:00Z,30.0600,-84.2910,-0.027,1111122 
COMPS,ioos:station:USF.COMPS:SHP:1,2015-12-01T14:36:00Z,30.0600,-84.2910,-0.047,1111122 
COMPS,ioos:station:USF.COMPS:SHP:1,2015-12-01T14:42:00Z,30.0600,-84.2910,-0.064,1111122 
COMPS,ioos:station:USF.COMPS:SHP:1,2015-12-01T14:48:00Z,30.0600,-84.2910,-0.075,1111122 
COMPS,ioos:station:USF.COMPS:SHP:1,2015-12-01T14:54:00Z,30.0600,-84.2910,-0.081,1111122 
COMPS,ioos:station:USF.COMPS:SHP:1,2015-12-01T15:00:00Z,30.0600,-84.2910,-0.09,1111122 
COMPS,ioos:station:USF.COMPS:SHP:1,2015-12-01T15:06:00Z,30.0600,-84.2910,-0.102,1111122 
COMPS,ioos:station:USF.COMPS:SHP:1,2015-12-01T15:12:00Z,30.0600,-84.2910,-0.114,1111122 
COMPS,ioos:station:USF.COMPS:SHP:1,2015-12-01T15:18:00Z,30.0600,-84.2910,-0.133,1111122 
COMPS,ioos:station:USF.COMPS:SHP:1,2015-12-01T15:24:00Z,30.0600,-84.2910,-0.15,1111122 
COMPS,ioos:station:USF.COMPS:SHP:1,2015-12-01T15:30:00Z,30.0600,-84.2910,-0.16,1111122 
COMPS,ioos:station:USF.COMPS:SHP:1,2015-12-01T15:36:00Z,30.0600,-84.2910,-0.166,1111122 
COMPS,ioos:station:USF.COMPS:SHP:1,2015-12-01T15:42:00Z,30.0600,-84.2910,-0.175,1111122 
COMPS,ioos:station:USF.COMPS:SHP:1,2015-12-01T15:48:00Z,30.0600,-84.2910,-0.189,1111122 
COMPS,ioos:station:USF.COMPS:SHP:1,2015-12-01T15:54:00Z,30.0600,-84.2910,-0.205,1111122 
COMPS,ioos:station:USF.COMPS:SHP:1,2015-12-01T16:00:00Z,30.0600,-84.2910,-0.217,1111122 
COMPS,ioos:station:USF.COMPS:SHP:1,2015-12-01T16:06:00Z,30.0600,-84.2910,-0.225,1111122 
COMPS,ioos:station:USF.COMPS:SHP:1,2015-12-01T16:12:00Z,30.0600,-84.2910,-0.229,1111122 
COMPS,ioos:station:USF.COMPS:SHP:1,2015-12-01T16:18:00Z,30.0600,-84.2910,-0.229,1111122 
COMPS,ioos:station:USF.COMPS:SHP:1,2015-12-01T16:24:00Z,30.0600,-84.2910,-0.235,1111122 
COMPS,ioos:station:USF.COMPS:SHP:1,2015-12-01T16:30:00Z,30.0600,-84.2910,-0.241,1111122 
COMPS,ioos:station:USF.COMPS:SHP:1,2015-12-01T16:36:00Z,30.0600,-84.2910,-0.248,1111122 
COMPS,ioos:station:USF.COMPS:SHP:1,2015-12-01T16:42:00Z,30.0600,-84.2910,-0.252,1111122 
COMPS,ioos:station:USF.COMPS:SHP:1,2015-12-01T16:48:00Z,30.0600,-84.2910,-0.257,1111122 
COMPS,ioos:station:USF.COMPS:SHP:1,2015-12-01T16:54:00Z,30.0600,-84.2910,-0.263,1111122 
COMPS,ioos:station:USF.COMPS:SHP:1,2015-12-01T17:00:00Z,30.0600,-84.2910,-0.264,1111122 
COMPS,ioos:station:USF.COMPS:SHP:1,2015-12-01T17:06:00Z,30.0600,-84.2910,-0.262,1111122 
COMPS,ioos:station:USF.COMPS:SHP:1,2015-12-01T17:12:00Z,30.0600,-84.2910,-0.261,1111122 
COMPS,ioos:station:USF.COMPS:SHP:1,2015-12-01T17:18:00Z,30.0600,-84.2910,-0.261,1111122 
COMPS,ioos:station:USF.COMPS:SHP:1,2015-12-01T17:24:00Z,30.0600,-84.2910,-0.258,1111122 
COMPS,ioos:station:USF.COMPS:SHP:1,2015-12-01T17:30:00Z,30.0600,-84.2910,-0.252,1111122 
COMPS,ioos:station:USF.COMPS:SHP:1,2015-12-01T17:36:00Z,30.0600,-84.2910,-0.244,1111122 
COMPS,ioos:station:USF.COMPS:SHP:1,2015-12-01T17:42:00Z,30.0600,-84.2910,-0.235,1111122 
COMPS,ioos:station:USF.COMPS:SHP:1,2015-12-01T17:48:00Z,30.0600,-84.2910,-0.224,1111122 
COMPS,ioos:station:USF.COMPS:SHP:1,2015-12-01T17:54:00Z,30.0600,-84.2910,-0.212,1111122 
COMPS,ioos:station:USF.COMPS:SHP:1,2015-12-01T18:00:00Z,30.0600,-84.2910,-0.202,1111122 
COMPS,ioos:station:USF.COMPS:SHP:1,2015-12-01T18:06:00Z,30.0600,-84.2910,-0.196,1111122 
COMPS,ioos:station:USF.COMPS:SHP:1,2015-12-01T18:12:00Z,30.0600,-84.2910,-0.19,1111122 
COMPS,ioos:station:USF.COMPS:SHP:1,2015-12-01T18:18:00Z,30.0600,-84.2910,-0.18,1111122 
COMPS,ioos:station:USF.COMPS:SHP:1,2015-12-01T18:24:00Z,30.0600,-84.2910,-0.164,1111122 
COMPS,ioos:station:USF.COMPS:SHP:1,2015-12-01T18:30:00Z,30.0600,-84.2910,-0.148,1111122 
COMPS,ioos:station:USF.COMPS:SHP:1,2015-12-01T18:36:00Z,30.0600,-84.2910,-0.134,1111122 
COMPS,ioos:station:USF.COMPS:SHP:1,2015-12-01T18:42:00Z,30.0600,-84.2910,-0.122,1111122 
COMPS,ioos:station:USF.COMPS:SHP:1,2015-12-01T18:48:00Z,30.0600,-84.2910,-0.107,1111122 
COMPS,ioos:station:USF.COMPS:SHP:1,2015-12-01T18:54:00Z,30.0600,-84.2910,-0.084,1111122 
COMPS,ioos:station:USF.COMPS:SHP:1,2015-12-01T19:00:00Z,30.0600,-84.2910,-0.063,1111122 
COMPS,ioos:station:USF.COMPS:SHP:1,2015-12-01T19:06:00Z,30.0600,-84.2910,-0.05,1111122 
COMPS,ioos:station:USF.COMPS:SHP:1,2015-12-01T19:12:00Z,30.0600,-84.2910,-0.04,1111122 
COMPS,ioos:station:USF.COMPS:SHP:1,2015-12-01T19:18:00Z,30.0600,-84.2910,-0.027,1111122 
COMPS,ioos:station:USF.COMPS:SHP:1,2015-12-01T19:24:00Z,30.0600,-84.2910,-0.011,1111122 
COMPS,ioos:station:USF.COMPS:SHP:1,2015-12-01T19:30:00Z,30.0600,-84.2910,0.008,1111122 
COMPS,ioos:station:USF.COMPS:SHP:1,2015-12-01T19:36:00Z,30.0600,-84.2910,0.028,1111122 
COMPS,ioos:station:USF.COMPS:SHP:1,2015-12-01T19:42:00Z,30.0600,-84.2910,0.047,1111122 
COMPS,ioos:station:USF.COMPS:SHP:1,2015-12-01T19:48:00Z,30.0600,-84.2910,0.066,1111122 
COMPS,ioos:station:USF.COMPS:SHP:1,2015-12-01T19:54:00Z,30.0600,-84.2910,0.089,1111122 
COMPS,ioos:station:USF.COMPS:SHP:1,2015-12-01T20:00:00Z,30.0600,-84.2910,0.112,1111122 
COMPS,ioos:station:USF.COMPS:SHP:1,2015-12-01T20:06:00Z,30.0600,-84.2910,0.129,1111122 
COMPS,ioos:station:USF.COMPS:SHP:1,2015-12-01T20:12:00Z,30.0600,-84.2910,0.142,1111122 
COMPS,ioos:station:USF.COMPS:SHP:1,2015-12-01T20:18:00Z,30.0600,-84.2910,0.159,1111122 
COMPS,ioos:station:USF.COMPS:SHP:1,2015-12-01T20:24:00Z,30.0600,-84.2910,0.182,1111122 
COMPS,ioos:station:USF.COMPS:SHP:1,2015-12-01T20:30:00Z,30.0600,-84.2910,0.205,1111122 
COMPS,ioos:station:USF.COMPS:SHP:1,2015-12-01T20:36:00Z,30.0600,-84.2910,0.233,1111122 
COMPS,ioos:station:USF.COMPS:SHP:1,2015-12-01T20:42:00Z,30.0600,-84.2910,0.256,1111122 
COMPS,ioos:station:USF.COMPS:SHP:1,2015-12-01T20:48:00Z,30.0600,-84.2910,0.27,1111122 
COMPS,ioos:station:USF.COMPS:SHP:1,2015-12-01T20:54:00Z,30.0600,-84.2910,0.283,1111122 
COMPS,ioos:station:USF.COMPS:SHP:1,2015-12-01T21:00:00Z,30.0600,-84.2910,0.302,1111122 
COMPS,ioos:station:USF.COMPS:SHP:1,2015-12-01T21:06:00Z,30.0600,-84.2910,0.323,1111122 
COMPS,ioos:station:USF.COMPS:SHP:1,2015-12-01T21:12:00Z,30.0600,-84.2910,0.34,1111122 
COMPS,ioos:station:USF.COMPS:SHP:1,2015-12-01T21:18:00Z,30.0600,-84.2910,0.357,1111122 
COMPS,ioos:station:USF.COMPS:SHP:1,2015-12-01T21:24:00Z,30.0600,-84.2910,0.371,1111122 
COMPS,ioos:station:USF.COMPS:SHP:1,2015-12-01T21:30:00Z,30.0600,-84.2910,0.386,1111122 
COMPS,ioos:station:USF.COMPS:SHP:1,2015-12-01T21:36:00Z,30.0600,-84.2910,0.403,1111122 
COMPS,ioos:station:USF.COMPS:SHP:1,2015-12-01T21:42:00Z,30.0600,-84.2910,0.415,1111122 
COMPS,ioos:station:USF.COMPS:SHP:1,2015-12-01T21:48:00Z,30.0600,-84.2910,0.42,1111122 
COMPS,ioos:station:USF.COMPS:SHP:1,2015-12-01T21:54:00Z,30.0600,-84.2910,0.427,1111122 
COMPS,ioos:station:USF.COMPS:SHP:1,2015-12-01T22:00:00Z,30.0600,-84.2910,0.439,1111122 
COMPS,ioos:station:USF.COMPS:SHP:1,2015-12-01T22:06:00Z,30.0600,-84.2910,0.455,1111122 
COMPS,ioos:station:USF.COMPS:SHP:1,2015-12-01T22:12:00Z,30.0600,-84.2910,0.469,1111122 
COMPS,ioos:station:USF.COMPS:SHP:1,2015-12-01T22:18:00Z,30.0600,-84.2910,0.474,1111122 
COMPS,ioos:station:USF.COMPS:SHP:1,2015-12-01T22:24:00Z,30.0600,-84.2910,0.474,1111122 
COMPS,ioos:station:USF.COMPS:SHP:1,2015-12-01T22:30:00Z,30.0600,-84.2910,0.481,1111122 
COMPS,ioos:station:USF.COMPS:SHP:1,2015-12-01T22:36:00Z,30.0600,-84.2910,0.494,1111122 
COMPS,ioos:station:USF.COMPS:SHP:1,2015-12-01T22:42:00Z,30.0600,-84.2910,0.506,1111122 
COMPS,ioos:station:USF.COMPS:SHP:1,2015-12-01T22:48:00Z,30.0600,-84.2910,0.512,1111122 
COMPS,ioos:station:USF.COMPS:SHP:1,2015-12-01T22:54:00Z,30.0600,-84.2910,0.519,1111122 
COMPS,ioos:station:USF.COMPS:SHP:1,2015-12-01T23:00:00Z,30.0600,-84.2910,0.521,1111122 
COMPS,ioos:station:USF.COMPS:SHP:1,2015-12-01T23:06:00Z,30.0600,-84.2910,0.52,1111122 
COMPS,ioos:station:USF.COMPS:SHP:1,2015-12-01T23:12:00Z,30.0600,-84.2910,0.527,1111122 
COMPS,ioos:station:USF.COMPS:SHP:1,2015-12-01T23:18:00Z,30.0600,-84.2910,0.536,1111122 
COMPS,ioos:station:USF.COMPS:SHP:1,2015-12-01T23:24:00Z,30.0600,-84.2910,0.534,1111122 
COMPS,ioos:station:USF.COMPS:SHP:1,2015-12-01T23:30:00Z,30.0600,-84.2910,0.535,1111122 
COMPS,ioos:station:USF.COMPS:SHP:1,2015-12-01T23:36:00Z,30.0600,-84.2910,0.54,1111122 
COMPS,ioos:station:USF.COMPS:SHP:1,2015-12-01T23:42:00Z,30.0600,-84.2910,0.54,1111122 
COMPS,ioos:station:USF.COMPS:SHP:1,2015-12-01T23:48:00Z,30.0600,-84.2910,0.542,1111122 
COMPS,ioos:station:USF.COMPS:SHP:1,2015-12-01T23:54:00Z,30.0600,-84.2910,0.548,1111122 
COMPS,ioos:station:USF.COMPS:SHP:1,2015-12-02T00:00:00Z,30.0600,-84.2910,0.548,1111122 
COMPS,ioos:station:USF.COMPS:SHP:1,2015-12-02T00:06:00Z,30.0600,-84.2910,0.537,1111122 
COMPS,ioos:station:USF.COMPS:SHP:1,2015-12-02T00:12:00Z,30.0600,-84.2910,0.539,1111122 
COMPS,ioos:station:USF.COMPS:SHP:1,2015-12-02T00:18:00Z,30.0600,-84.2910,0.534,1111122 
COMPS,ioos:station:USF.COMPS:SHP:1,2015-12-02T00:24:00Z,30.0600,-84.2910,0.519,1111122 
COMPS,ioos:station:USF.COMPS:SHP:1,2015-12-02T00:30:00Z,30.0600,-84.2910,0.516,1111122 
COMPS,ioos:station:USF.COMPS:SHP:1,2015-12-02T00:36:00Z,30.0600,-84.2910,0.515,1111122 
COMPS,ioos:station:USF.COMPS:SHP:1,2015-12-02T00:42:00Z,30.0600,-84.2910,0.51,1111122 
COMPS,ioos:station:USF.COMPS:SHP:1,2015-12-02T00:48:00Z,30.0600,-84.2910,0.508,1111122 
COMPS,ioos:station:USF.COMPS:SHP:1,2015-12-02T00:54:00Z,30.0600,-84.2910,0.503,1111122 
COMPS,ioos:station:USF.COMPS:SHP:1,2015-12-02T01:00:00Z,30.0600,-84.2910,0.487,1111122 
COMPS,ioos:station:USF.COMPS:SHP:1,2015-12-02T01:06:00Z,30.0600,-84.2910,0.475,1111122 
COMPS,ioos:station:USF.COMPS:SHP:1,2015-12-02T01:12:00Z,30.0600,-84.2910,0.47,1111122 
COMPS,ioos:station:USF.COMPS:SHP:1,2015-12-02T01:18:00Z,30.0600,-84.2910,0.468,1111122 
COMPS,ioos:station:USF.COMPS:SHP:1,2015-12-02T01:24:00Z,30.0600,-84.2910,0.457,1111122 
COMPS,ioos:station:USF.COMPS:SHP:1,2015-12-02T01:30:00Z,30.0600,-84.2910,0.437,1111122 
COMPS,ioos:station:USF.COMPS:SHP:1,2015-12-02T01:36:00Z,30.0600,-84.2910,0.426,1111122 
COMPS,ioos:station:USF.COMPS:SHP:1,2015-12-02T01:42:00Z,30.0600,-84.2910,0.417,1111122 
COMPS,ioos:station:USF.COMPS:SHP:1,2015-12-02T01:48:00Z,30.0600,-84.2910,0.402,1111122 
COMPS,ioos:station:USF.COMPS:SHP:1,2015-12-02T01:54:00Z,30.0600,-84.2910,0.39,1111122 
COMPS,ioos:station:USF.COMPS:SHP:1,2015-12-02T02:00:00Z,30.0600,-84.2910,0.377,1111122 
COMPS,ioos:station:USF.COMPS:SHP:1,2015-12-02T02:06:00Z,30.0600,-84.2910,0.367,1111122 
COMPS,ioos:station:USF.COMPS:SHP:1,2015-12-02T02:12:00Z,30.0600,-84.2910,0.361,1111122 
COMPS,ioos:station:USF.COMPS:SHP:1,2015-12-02T02:18:00Z,30.0600,-84.2910,0.352,1111122 
COMPS,ioos:station:USF.COMPS:SHP:1,2015-12-02T02:24:00Z,30.0600,-84.2910,0.341,1111122 
COMPS,ioos:station:USF.COMPS:SHP:1,2015-12-02T02:30:00Z,30.0600,-84.2910,0.325,1111122 
COMPS,ioos:station:USF.COMPS:SHP:1,2015-12-02T02:36:00Z,30.0600,-84.2910,0.307,1111122 
COMPS,ioos:station:USF.COMPS:SHP:1,2015-12-02T02:42:00Z,30.0600,-84.2910,0.295,1111122 
COMPS,ioos:station:USF.COMPS:SHP:1,2015-12-02T02:48:00Z,30.0600,-84.2910,0.275,1111122 
COMPS,ioos:station:USF.COMPS:SHP:1,2015-12-02T02:54:00Z,30.0600,-84.2910,0.256,1111122 
COMPS,ioos:station:USF.COMPS:SHP:1,2015-12-02T03:00:00Z,30.0600,-84.2910,0.242,1111122 